This is the latest recevied weather packets stored in our database for station/object HB9BTL-13. If no packets are shown the sender has not sent any weather packets the latest 10 day(s).
| Time | Temp. | Humidity | Pressure | Rain* | Wind** | Luminosity | Snow |
|---|---|---|---|---|---|---|---|
| 1777548156 | 18.33° C | 37% | 1022 hPa | - | - | - | - |
| 1777547251 | 18.33° C | 37% | 1022.2 hPa | - | - | - | - |
| 1777546345 | 17.78° C | 38% | 1022.2 hPa | - | - | - | - |
| 1777545440 | 17.22° C | 39% | 1022.3 hPa | - | - | - | - |
| 1777544535 | 16.67° C | 39% | 1022.5 hPa | - | - | - | - |
| 1777543630 | 16.67° C | 40% | 1022.5 hPa | - | - | - | - |
| 1777542724 | 15.56° C | 40% | 1022.7 hPa | - | - | - | - |
| 1777541819 | 15.56° C | 39% | 1022.9 hPa | - | - | - | - |
| 1777540913 | 15.56° C | 42% | 1022.9 hPa | - | - | - | - |
| 1777540008 | 15° C | 43% | 1023 hPa | - | - | - | - |
| 1777539102 | 13.89° C | 42% | 1022.9 hPa | - | - | - | - |
| 1777538197 | 14.44° C | 42% | 1023 hPa | - | - | - | - |
| 1777537292 | 13.33° C | 42% | 1023.1 hPa | - | - | - | - |
| 1777536387 | 13.89° C | 43% | 1022.9 hPa | - | - | - | - |
| 1777535480 | 13.33° C | 43% | 1022.9 hPa | - | - | - | - |
| 1777534576 | 12.78° C | 44% | 1023 hPa | - | - | - | - |
| 1777533671 | 12.78° C | 46% | 1023.1 hPa | - | - | - | - |
| 1777532765 | 11.67° C | 44% | 1023.2 hPa | - | - | - | - |
| 1777531860 | 11.67° C | 43% | 1023.1 hPa | - | - | - | - |
| 1777530954 | 11.11° C | 44% | 1023.1 hPa | - | - | - | - |
| 1777530049 | 11.67° C | 45% | 1023.1 hPa | - | - | - | - |
| 1777529143 | 11.11° C | 46% | 1023.1 hPa | - | - | - | - |
| 1777528238 | 10.56° C | 45% | 1023 hPa | - | - | - | - |
| 1777527332 | 10.56° C | 45% | 1022.9 hPa | - | - | - | - |
| 1777526427 | 10.56° C | 44% | 1022.8 hPa | - | - | - | - |
* Rain since midnight (hover to see other rain measurements)
** Current wind speed in m/s (hover to see current wind gust speed)